Miscellaneous Local Product
Issued by NWS North Platte, NE

Home | Current Version | Previous Version | Graphics & Text | Print | Product List | Glossary On
Versions: 1 2 3 4 5 6 7 8 9 10 11 12 13 14 15 16 17 18 19 20 21 22 23 24 25 26 27 28 29 30 31 32 33 34 35 36 37 38 39 40 41 42 43 44 45 46 47 48 49 50
573
AXUS43 KLBF 241310
MISLBF


WESTERN AND NORTH CENTRAL NEBRASKA HOURLY WEATHER ROUNDUP
NATIONAL WEATHER SERVICE NORTH PLATTE NE
800 AM CDT MON JUL 24 2017

NOTE: "FAIR" INDICATES FEW OR NO CLOUDS BELOW 12,000 FEET WITH NO
SIGNIFICANT WEATHER AND/OR OBSTRUCTIONS TO VISIBILITY.

NOTE: STATIONS NOT REPORTING VARIABLES SUCH AS SKY/WEATHER OR
PRESSURE ARE PROVIDED BY RAWS AND APRS NETWORKS AND ARE NOT UNDER
NATIONAL WEATHER SERVICE QUALITY CONTROL.

...OBSERVATIONS IN AND NEAR THE EASTERN PANHANDLE OF NEBRASKA...

CITY           SKY/WX    TMP DP  RH WIND       PRES   REMARKS
PINE RIDGE     MOSUNNY   72  59  63 VRB3      29.94F
GORDON         FAIR      66  59  78 CALM      29.97R
CHADRON        MOSUNNY   69  53  56 N3        29.92S
ALLIANCE       SUNNY     73  58  59 SW13      29.99S
SIDNEY         SUNNY     72  60  66 SW13      30.05S
CRESCENT LAKE    N/A     71  60  67 S5          N/A
$$

...OBSERVATIONS IN NORTHERN NEBRASKA AND FAR SOUTHERN SOUTH DAKOTA...

CITY           SKY/WX    TMP DP  RH WIND       PRES   REMARKS
WINNER         FAIR      72  58  61 S16       29.97S
VALENTINE      SUNNY     69  59  70 S12       29.98S
THEDFORD       SUNNY     69  64  82 S15       30.02S
AINSWORTH      SUNNY     67  60  78 S14       29.99F
O`NEILL        SUNNY     65  62  91 S7        30.03R
ORD            SUNNY     67  59  75 SE8       30.02R
BROKEN BOW     SUNNY     65  61  87 SE8       30.03S
VALENTINE NWR    N/A     63  60  91 S9          N/A
HALSEY           N/A     64  61  90 SE6         N/A
BUTTE            N/A     64  60  87 S10         N/A
CHAMBERS         N/A     71  64  78 SW3         N/A
EWING            N/A     65  62  89 S5          N/A
$$

...OBSERVATIONS IN SOUTHWEST NEBRASKA AND FAR NORTHEAST COLORADO...

CITY           SKY/WX    TMP DP  RH WIND       PRES   REMARKS
HOLYOKE        FAIR      66  61  82 S6        30.05S
IMPERIAL       SUNNY     70  58  65 S8        30.03S
OGALLALA       SUNNY     64  57  76 CALM      30.03S
NORTH PLATTE   SUNNY     67  65  93 E7        30.02S
MCCOOK         MOSUNNY   66  66 100 NE3       30.03R FOG
LEXINGTON      SUNNY     69  63  81 SE8       30.04S
STAPLETON        N/A     66  62  88 CALM        N/A
GOTHENBURG       N/A     64  59  83 E3          N/A
CALLAWAY         N/A     64  62  94 S9          N/A
$$

...OBSERVATIONS IN CENTRAL LINCOLN COUNTY AREA...

CITY           SKY/WX    TMP DP  RH WIND       PRES   REMARKS
N.P. AIRPORT   SUNNY     67  65  93 E7        30.02S
N.P. DOWNTOWN    N/A     71  66  84 CALM        N/A
N.P. SOUTHEAST   N/A     68  65  89 SE3         N/A
N.P. HILLCREST   N/A     68  65  90 SE8         N/A
$$

...SOME OBSERVATIONS FROM AROUND THE REGION...

CITY           SKY/WX    TMP DP  RH WIND       PRES   REMARKS
DENVER         MOSUNNY   72  53  51 S16G23    30.09R
LIMON          SUNNY     64  60  87 S6        30.15S
ASPEN          CLOUDY    51  43  74 S3        30.34R
LARAMIE        CLOUDY    56  45  66 SE6       30.23S
CASPER         SUNNY     64  41  42 SW9       30.06R
CHEYENNE       CLOUDY    61  51  70 SW3       30.14R
SCOTTSBLUFF    MOSUNNY   78  57  48 S8        29.98R
GRAND ISLAND   SUNNY     68  63  84 SE12      30.04R
OMAHA          MOSUNNY   67  60  78 N3        30.04R
SIOUX FALLS    CLOUDY    66  62  87 SE8       30.04S
PIERRE         SUNNY     68  58  70 SE12      29.92S
RAPID CITY     SUNNY     68  54  60 W5        29.90S
BISMARCK       CLOUDY    66  61  84 E7        29.90F
KANSAS CITY    PTSUNNY   72  65  78 NE8       30.01R
HILL CITY      PTSUNNY   66  66 100 CALM      30.03S FOG
WICHITA        SUNNY     77  71  82 CALM      29.98S
DODGE CITY     SUNNY     72  64  76 S5        30.05R
OKLAHOMA CITY  SUNNY     74  70  87 NW6       29.98R
DALLAS         CLOUDY    76  73  91 SE3       29.94R
AMARILLO       SUNNY     69  64  84 S9        30.10R
$$




USA.gov is the U.S. government's official web portal to all federal, state and local government web resources and services.